Location: Newark
(7.0858°N, 171.3717°E)
Time: 17:00:20
(UTC+00:00)

Altair - Pass Details

Date: 29 November 2020
Orbit: 1501 x 1682 km, 47.2° (Epoch: 20 January)

Event Time Altitude Azimuth Distance (km) Brightness Sun altitude
Rises 08:14:20 0° 257° (WSW) 4,803 11.3 -28.5°
Reaches altitude 10° 08:18:36 10° 273° (W) 3,783 10.3 -29.4°
Maximum altitude 08:25:09 20° 317° (NW) 2,995 9.2 -31.0°
Enters shadow 08:30:37 12° 356° (N) 3,506 9.2 -32.2°
